SCP
0 0 0 0 0 0 0 1 2 2 3 3 2 2 1 0 0 0 0 0 0 0 0 0 0 0 0 0 0 0 0 0 0 0 0 0 0 0 0 0 0 0 0
0 0 0 0 0 0 1 1 2 3 3 3 2 1 0 0 0 0 0 0 0 0 0 0 0 0 0 0 0 0 0 0 0 0 0 0 0 0 0 0 0 0 0
0 0 0 0 0 0 1 2 2 3 2 2 1 0 0 0 0 0 0 0 0 0 0 0 0 0 0 0 0 0 0 0 0 0 0 0 0 0 0 0 0 0 0
0 0 0 0 0 1 2 2 2 2 2 1 0 0 0 0 0 0 0 0 0 0 0 0 0 0 0 0 0 0 0 0 0 0 0 0 0 0 0 0 0 0 0
0 0 0 0 0 1 2 2 2 2 1 0 0 0 0 0 0 0 0 0 0 0 0 0 0 0 0 0 0 0 0 0 0 0 0 0 0 0 0 0 0 0 0
0 0 0 0 0 1 1 2 2 1 1 0 0 0 0 0 0 0 0 0 0 0 0 0 0 0 0 0 0 0 0 0 0 0 0 0 0 0 0 0 0 0 0
0 0 0 0 0 0 1 1 1 1 0 0 0 0 0 0 0 0 0 0 0 0 0 0 0 0 0 0 0 0 0 0 0 0 0 0 0 0 0 0 0 0 0
0 0 0 0 0 0 1 1 1 0 0 0 0 0 0 0 0 0 0 0 0 0 0 0 0 0 0 0 0 0 0 0 0 0 0 0 0 0 0 0 0 0 0
0 0 0 0 0 0 1 0 0 0 0 0 0 0 0 0 0 0 0 0 0 0 0 0 0 0 0 0 0 0 0 0 0 0 0 0 0 0 0 0 0 0 0
0 0 0 0 0 0 0 0 0 0 0 0 0 0 0 0 0 0 0 0 0 0 0 0 0 0 0 0 0 0 0 0 0 0 0 0 0 0 0 0 0 0 0
0 0 0 0 0 0 0 0 0 0 0 0 0 0 0 0 0 0 0 0 0 0 0 0 0 0 0 0 0 0 0 0 0 0 0 0 0 0 0 0 0 0 0
0 0 0 0 0 0 0 0 0 0 0 0 0 0 0 0 0 0 0 0 0 0 0 0 0 0 0 0 0 0 0 0 0 0 0 0 0 0 0 0 0 0 0
0 0 0 0 0 0 0 0 0 0 0 0 0 0 0 0 0 0 0 0 0 0 0 0 0 0 0 0 0 0 0 0 0 0 0 0 0 0 0 0 0 0 0
0 0 0 0 0 0 0 0 0 0 0 0 0 0 0 0 0 0 0 0 0 0 0 0 0 0 0 0 0 0 0 0 0 0 0 0 0 0 0 0 0 0 0
0 0 0 0 0 0 0 0 0 0 0 0 0 0 0 0 0 0 0 0 0 0 0 0 0 0 0 0 0 0 0 0 0 0 0 0 0 0 0 0 0 0 0
0 0 0 0 0 0 0 0 0 0 0 0 0 0 0 0 0 0 0 0 0 0 0 0 0 0 0 0 0 0 0 0 0 0 0 0 0 0 0 0 0 0 0
0 0 0 0 0 0 0 0 0 0 0 0 0 0 0 0 0 0 0 0 0 0 0 0 0 0 0 0 0 0 0 0 0 0 0 0 0 0 0 0 0 0 0
0 0 0 0 0 0 0 0 0 0 0 0 0 0 0 0 0 0 0 0 0 0 0 0 0 0 0 0 0 0 0 0 0 0 0 0 0 0 0 0 0 0 0
0 0 0 0 0 0 0 0 0 0 0 0 0 0 0 0 0 0 0 0 0 0 0 0 0 0 0 0 0 0 0 0 0 0 0 0 0 0 0 0 0 0 0
0 0 0 0 0 0 0 0 0 0 0 0 0 0 0 0 0 0 0 0 0 0 0 0 0 0 0 0 0 0 0 0 0 0 0 0 0 0 0 0 0 0 0
0 0 0 0 0 0 0 0 0 0 0 0 0 0 0 0 0 0 0 0 0 0 0 0 0 0 0 0 0 0 0 0 0 0 0 0 0 0 0 0 0 0 0
0 0 0 0 0 0 0 0 0 0 0 0 0 0 0 0 0 0 0 0 0 0 0 0 0 0 0 0 0 0 0 0 0 0 0 0 0 0 0 0 0 0 0
0 0 0 0 0 0 0 0 0 0 0 0 0 0 0 0 0 0 0 0 0 0 0 0 0 0 0 0 0 0 0 0 0 0 0 0 0 0 0 0 0 0 0
0 0 0 0 0 0 0 0 0 0 0 0 0 0 0 0 0 0 0 0 0 0 0 0 0 0 0 0 0 0 0 0 0 0 0 0 0 0 0 0 0 0 0
0 0 0 0 0 0 0 0 0 0 0 0 0 0 0 0 0 0 0 0 0 0 0 0 0 0 0 0 0 0 0 0 0 0 0 0 0 0 0 0 0 0 0
0 0 0 0 0 0 0 0 0 0 0 0 0 0 0 0 0 0 0 0 0 0 0 0 0 0 0 0 0 0 0 0 0 0 0 0 0 0 0 0 0 0 0
Wind_Speed
18 16 15 13 12 10 10 10 12 14 13 11 11 10 9 8 8 8 11 11 12 12 10 8 7 6 5 5 5 4 5 5 5 4 2 2 5 5 4 3 4 3 3
22 20 18 14 13 12 11 11 13 15 15 12 10 7 9 7 8 8 8 10 11 11 9 10 8 7 6 6 5 4 2 3 4 4 4 3 3 3 4 4 4 5 5
24 23 22 19 15 13 13 12 15 16 16 14 9 10 8 7 7 8 7 7 9 10 10 10 9 8 6 5 5 4 3 3 3 4 4 4 3 5 4 4 5 5 6
20 21 21 21 18 16 13 14 16 17 17 16 15 17 12 11 10 9 8 9 10 11 11 10 9 8 6 6 5 4 3 2 2 1 2 3 4 5 6 5 5 7 8
17 18 19 19 18 16 14 15 16 17 18 17 17 16 13 11 11 11 13 11 10 10 10 10 9 8 6 6 5 4 3 2 2 2 2 2 3 6 5 8 8 7 7
13 15 16 16 15 14 15 16 18 18 18 18 17 16 17 17 17 16 14 11 9 9 10 9 8 8 6 6 5 4 3 1 1 2 3 4 4 5 6 9 11 11 9
12 12 13 14 14 16 17 18 20 19 19 18 17 16 18 21 22 19 15 13 10 9 10 9 8 7 6 6 5 3 2 2 3 3 4 4 5 6 7 10 11 13 11
12 12 12 12 15 18 20 20 21 20 20 18 16 15 16 13 13 16 14 12 10 10 11 9 8 8 7 6 4 3 2 2 3 4 5 5 5 6 7 8 11 13 11
13 12 11 11 15 18 20 21 21 20 19 18 16 15 14 13 15 14 13 10 10 10 11 10 8 7 6 5 4 2 2 2 3 5 6 6 5 6 7 8 9 10 14
14 13 10 10 13 15 17 18 18 18 18 18 15 12 13 14 15 14 14 13 13 11 11 9 8 7 6 4 3 2 1 3 4 4 6 7 6 7 7 8 9 10 13
15 13 8 8 11 13 15 16 17 17 17 17 15 15 14 15 15 14 14 13 12 11 10 9 8 6 5 4 2 2 2 4 5 5 6 8 9 8 8 8 9 9 11
14 12 6 7 11 14 15 16 16 15 16 16 16 15 16 15 15 14 14 13 12 10 9 8 7 5 4 2 1 2 4 5 6 6 7 8 7 9 9 8 9 10 11
12 7 3 9 12 14 15 15 15 15 15 15 17 17 16 16 15 14 13 12 11 10 8 7 6 5 3 1 2 4 5 6 7 7 8 9 10 10 9 10 11 10 11
9 3 5 9 11 12 13 14 14 14 14 15 17 17 16 16 15 14 13 12 10 9 7 6 5 3 1 1 3 5 6 7 8 8 9 10 10 11 12 11 13 13 14
5 5 8 10 11 12 13 13 14 13 14 16 16 16 16 15 15 14 12 11 9 8 6 5 4 2 1 2 5 6 7 8 9 9 10 10 12 15 14 12 14 15 14
4 8 9 11 12 13 13 14 14 13 14 16 16 16 16 15 14 13 12 10 8 7 5 4 2 1 2 4 7 8 8 8 9 10 10 11 12 14 18 20 21 21 18
6 10 11 11 11 12 14 15 14 15 15 16 16 16 15 15 13 12 11 9 7 6 4 3 1 1 3 6 9 10 10 9 9 10 11 10 10 16 13 17 21 21 23
8 10 11 11 12 12 13 15 15 16 16 16 16 15 15 14 12 11 9 8 6 4 3 2 1 2 4 7 10 12 10 9 9 11 12 12 13 13 16 17 17 16 16
9 11 12 13 13 14 15 16 16 16 16 15 15 14 14 13 11 10 8 6 5 4 2 1 2 4 5 6 10 12 9 8 10 11 12 13 13 18 22 18 16 17 15
11 12 13 14 15 14 15 16 16 15 15 14 14 12 12 11 10 9 7 5 4 3 1 0 2 4 6 7 11 13 8 9 10 11 11 14 16 20 23 17 16 17 15
13 13 14 13 13 14 15 16 15 14 13 13 13 11 10 10 9 8 6 4 3 1 0 2 3 4 6 8 10 13 9 9 11 11 10 10 18 22 24 20 15 17 18
13 13 13 13 12 13 15 16 14 13 13 13 12 11 10 8 7 7 5 3 1 0 2 4 5 3 5 6 10 14 14 14 12 11 10 12 21 23 22 17 17 22 19
12 12 14 15 12 11 13 17 13 13 13 13 12 10 9 7 6 5 4 2 0 2 3 4 5 5 5 6 11 14 16 17 12 11 17 20 21 19 15 16 20 17 10
12 12 14 15 13 12 13 15 13 12 13 13 11 9 8 6 5 3 2 1 1 2 3 5 5 6 7 7 7 9 10 13 12 11 15 19 17 14 15 15 12 9 9
11 11 13 15 14 13 13 12 12 12 12 11 9 7 6 5 4 3 1 1 1 3 6 5 6 7 8 9 16 13 10 10 11 14 11 9 9 9 9 10 10 10 10
12 13 14 15 14 13 12 10 10 11 11 9 7 5 4 3 2 1 0 1 3 5 7 8 9 9 11 16 17 17 18 19 18 13 9 8 9 9 10 11 12 11 11
Wind_Direction
258 255 255 255 248 236 226 216 194 177 173 175 172 164 155 145 135 131 135 136 133 132 132 133 133 127 112 107 99 87 60 31 351 328 312 190 209 238 228 249 265 256 296
256 251 247 244 240 229 217 203 186 175 175 178 176 162 137 124 117 118 119 130 132 134 136 136 130 123 116 106 90 75 62 47 15 349 327 316 210 188 212 267 264 277 293
250 245 240 235 229 222 206 192 181 175 175 173 153 133 119 122 119 119 117 130 132 134 133 131 127 124 117 107 93 75 51 46 46 14 349 327 319 320 277 277 285 292 302
244 243 240 231 221 214 198 187 178 174 173 165 164 163 159 156 154 144 136 136 132 131 129 128 126 121 117 116 104 84 66 23 25 38 0 321 317 295 300 278 274 288 296
251 246 241 235 221 206 189 181 176 175 170 170 173 171 159 144 135 133 136 134 131 130 131 130 126 122 119 116 114 110 92 44 2 338 314 288 272 265 280 294 302 297 291
271 260 249 238 224 196 183 177 176 174 170 172 173 167 151 145 145 146 145 141 135 133 133 131 127 126 125 125 125 128 129 118 286 286 288 296 294 297 286 290 299 303 304
290 275 254 231 209 190 183 179 176 172 171 170 170 161 156 155 155 155 154 148 144 142 141 138 134 130 129 131 137 147 159 203 260 277 287 284 280 288 285 287 296 299 299
296 283 262 228 202 191 184 180 176 171 169 167 162 155 156 156 155 156 153 149 144 141 141 138 136 136 137 140 149 162 185 236 266 280 287 287 284 285 286 290 298 299 293
313 296 268 226 203 191 185 182 174 168 165 160 152 150 155 152 149 147 143 135 132 136 139 139 140 140 141 146 162 180 203 254 277 291 291 288 291 290 288 286 284 289 296
323 312 277 224 200 190 182 177 171 163 157 150 146 146 148 145 143 141 137 134 134 136 139 141 143 144 147 155 170 194 240 283 298 304 299 301 297 295 289 285 283 280 284
325 318 286 219 187 175 169 166 160 153 149 145 139 140 140 140 139 133 132 133 134 138 140 143 146 148 152 162 183 234 284 299 304 302 303 303 303 297 295 293 288 284 284
324 318 285 186 166 163 160 155 150 147 144 139 136 136 136 135 131 128 129 131 132 134 137 142 144 144 152 172 231 290 300 302 302 303 303 304 304 300 297 295 292 290 289
321 315 222 167 159 157 151 145 142 139 138 136 134 134 133 131 128 127 128 128 128 130 135 141 141 142 149 195 296 306 305 299 294 294 298 302 302 300 300 298 294 292 291
307 268 173 155 150 148 143 137 133 135 136 134 131 130 129 127 126 125 125 126 128 132 136 135 131 128 132 298 309 307 302 296 289 287 290 296 298 300 301 296 295 295 295
271 188 160 146 142 139 135 130 130 133 133 128 124 123 122 122 122 123 123 124 126 129 134 134 128 107 28 349 327 315 304 297 294 291 292 293 296 297 297 298 299 301 297
214 169 153 146 144 140 134 130 129 130 127 121 120 122 122 122 122 124 125 126 128 132 135 131 116 74 18 340 324 319 305 298 296 298 299 299 297 299 301 301 300 296 293
178 158 151 146 141 138 135 132 129 126 121 118 120 122 123 122 124 127 128 131 134 138 138 126 95 353 2 336 327 318 305 299 298 299 301 302 303 306 303 301 298 295 293
156 146 137 130 128 128 127 124 122 120 119 119 121 123 124 125 128 129 128 131 135 139 138 124 11 330 346 335 322 318 306 299 297 301 304 304 306 307 308 304 301 298 295
135 129 127 126 125 125 125 121 118 118 119 122 124 127 128 130 131 130 130 133 138 138 138 141 334 326 330 329 322 325 311 302 303 305 303 304 302 305 308 307 305 302 300
113 118 121 122 121 124 125 120 119 120 121 123 124 126 129 131 130 127 127 129 135 136 149 303 323 317 318 324 326 326 312 312 312 308 306 304 307 310 311 311 309 306 308
108 116 118 117 120 125 123 117 115 115 117 118 119 120 121 120 120 121 124 132 136 141 310 308 308 304 314 321 325 324 319 316 312 309 307 307 312 311 313 313 307 305 307
105 111 111 110 116 122 119 111 109 114 116 116 115 115 115 113 119 125 128 129 125 309 318 318 319 316 316 313 321 321 317 315 310 306 307 308 311 313 314 311 306 308 309
105 109 112 110 109 111 114 111 116 120 119 117 115 114 114 116 125 131 134 134 92 332 328 325 320 323 323 321 321 319 316 315 310 303 305 307 310 314 311 306 309 311 307
108 113 112 108 104 103 105 113 121 123 120 118 119 122 124 126 127 122 116 98 354 333 325 320 319 318 317 320 323 320 317 315 312 310 307 308 308 306 304 306 309 309 305
108 108 107 106 107 109 109 113 120 123 121 122 124 128 129 131 126 115 78 355 344 322 319 319 317 314 314 318 319 316 314 316 314 314 306 305 310 313 313 313 314 314 313
109 108 107 109 112 111 109 112 122 127 127 127 130 129 128 124 113 91 88 229 295 311 310 311 313 310 306 312 315 316 317 319 320 315 304 310 313 313 315 316 316 315 313